OneWeb SL0096

operational
NORAD ID: 45439 Int'l Des: 2020-020 Owner: ONEWEB Country: UK Constellation: oneweb
LEOCIRCULARPOLARONEWEB_TYPE

关于 OneWeb SL0096

正在加载描述...

实时位置

正在加载3D地球...

即将过境

高度历史

Altitude vs Time

uPlot chart will show altitude changes over time

两行轨道根数

1 45439U 20020R 26034.53748434 -.00000083 00000-0 -26943-3 0 9992
2 45439 87.8828 47.6475 0001836 87.8158 272.3180 13.11418675285146
Epoch: Feb 3, 2026 • Age: 19 hours

当前状态

高度 1219.8 km
速度 7.24 km/s
星下点 7.39°N, 28.6°W
发射日期 Mar 21, 2020
运行时间 5.8 years
类型 internet

技术详情

分类 Payload
质量 148.00 kg
干质量 140.00 kg
总质量 148.00 kg
长度 1.30 m
直径 1.00 m
跨度 5.00 m
形状 Trapezoid+2 pan
制造商 ONEWUS
平台类型 ARROW
阶段状态 In Orbit
所有者/国家 ONEWEB/UK

大型星座

Loading constellations...